Location: Chochol
(49.7771°N, 14.9780°E)
Time: 02:36:30
(UTC+00:00)

Cosmos 1850 Rocket - Pass Details

Date: 09 April 2020
Orbit: 754 x 786 km, 74.0° (Epoch: 03 June)

Event Time Altitude Azimuth Distance (km) Brightness Sun altitude
Exits shadow 20:24:23 16° 210° (SSW) 1,882 5.8 -22.9°
Maximum altitude 20:28:31 76° 295° (WNW) 783 4.1 -23.3°
Drops below altitude 10° 20:33:43 10° 21° (NNE) 2,292 6.8 -23.9°
Sets 20:36:06 0° 23° (NNE) 3,223 7.6 -24.1°
